Regional Weather Roundup
Issued by NWS

Home | Current Version | Previous Version | Graphics & Text | Print | Product List | Glossary On
Versions: 1 2 3 4 5 6 7 8 9 10 11 12 13 14 15 16 17 18 19 20 21 22 23 24 25 26 27 28 29 30 31 32 33 34 35 36 37 38 39 40 41 42 43 44 45 46 47 48 49 50
000
ASUS43 KOAX 162110
RWRNE

WEATHER ROUNDUP FOR NEBRASKA
NATIONAL WEATHER SERVICE OMAHA NE
400 PM CDT WED AUG 16 2017

NOTES: SATELLITE DATA IS BEING USED TO AUGMENT CLOUD COVER ABOVE
       12000 FEET.
       "FAIR" INDICATES FEW OR NO CLOUDS BELOW 12,000 FEET WITH NO
       SIGNIFICANT WEATHER AND/OR OBSTRUCTIONS TO VISIBILITY.


NEZ001>004-019>022-054>056-162200-
NEBRASKA PANHANDLE

CITY           SKY/WX    TMP DP  RH WIND       PRES   REMARKS
SCOTTSBLUFF    MOSUNNY   77  48  35 N13G23    30.04S
ALLIANCE       PTSUNNY   70  54  56 N10       30.03S
CHADRON        MOSUNNY   78  48  34 N12       30.01F
GORDON         FAIR      74  52  46 N20       30.01R
KIMBALL        PTSUNNY   73  47  40 N15       30.10S
SIDNEY         PTSUNNY   76  52  43 N14G22    30.06F
$$

NEZ057>060-069>072-079>082-162200-
SOUTHWEST NEBRASKA

CITY           SKY/WX    TMP DP  RH WIND       PRES   REMARKS
NORTH PLATTE   LGT RAIN  66  62  87 NW14G21   29.97R
IMPERIAL       MOSUNNY   79  56  45 N14       29.99S
LEXINGTON      MOSUNNY   79  62  56 NW14      29.90S
MCCOOK         PTSUNNY   76  61  59 NW10      29.93S
OGALLALA       CLOUDY    72  58  61 N10       30.00S
$$

NEZ005>010-023>029-035>040-094-162200-
NORTH CENTRAL NEBRASKA

CITY           SKY/WX    TMP DP  RH WIND       PRES   REMARKS
VALENTINE      PTSUNNY   67  58  72 NW15      29.95S
AINSWORTH      PTSUNNY   65  61  89 NW17G25   29.94R
BROKEN BOW     LGT RAIN  67  64  90 NW15      29.93R
O`NEILL        DRIZZLE   65  65  99 NW20      29.87R
ORD            CLOUDY    73  62  68 NW20      29.86R
THEDFORD       RAIN      64  61  90 NW8       29.98S
$$

NEZ041-046>049-061>064-073>077-083>087-162200-
SOUTH CENTRAL NEBRASKA

CITY           SKY/WX    TMP DP  RH WIND       PRES   REMARKS
GRAND ISLAND   MOSUNNY   77  64  64 NW13      29.84F
AURORA         MOSUNNY   77  64  63 W10       29.83S
HASTINGS       MOSUNNY   79  61  53 NW15      29.86F
HEBRON         MOSUNNY   81  63  55 W12G20    29.83S
HOLDREGE       MOSUNNY   77  60  55 W10G17    29.89F
KEARNEY        PTSUNNY   80  62  54 W9        29.88S
YORK           PTSUNNY   77  66  69 W9        29.82S
$$

NEZ011>018-030>034-042>045-162200-
NORTHEAST NEBRASKA

CITY           SKY/WX    TMP DP  RH WIND       PRES   REMARKS
NORFOLK        CLOUDY    73  64  73 NW14      29.78S
ALBION         CLOUDY    76  66  72 NW13      29.82S
BLAIR          CLOUDY    78  67  69 SW15G21   29.76S
COLUMBUS       PTSUNNY   75  66  73 NW14      29.81R
FREMONT        CLOUDY    76  65  69 W14G23    29.77R
TEKAMAH        CLOUDY    78  67  68 SW9       29.73R
WAYNE          CLOUDY    72  69  89 NW10      29.78R
$$

NEZ050>053-065>068-078-088>093-162200-
SOUTHEAST NEBRASKA

CITY           SKY/WX    TMP DP  RH WIND       PRES   REMARKS
LINCOLN        MOSUNNY   82  64  54 W17       29.79S
OMAHA EPPLEY   MOSUNNY   83  65  54 SW14G24   29.75R
BEATRICE       MOSUNNY   82  64  54 W15       29.81S
FALLS CITY     PTSUNNY   82  66  58 W14       29.79S
NEBRASKA CITY  MOSUNNY   82  66  58 SW15      29.79S
PLATTSMOUTH    PTSUNNY   82  64  55 SW13      29.77S
$$

NEZ044-045-051>053-067-162200-
OMAHA AREA

CITY           SKY/WX    TMP DP  RH WIND       PRES   REMARKS
OMAHA EPPLEY   MOSUNNY   83  65  54 SW14G24   29.75R
BLAIR          CLOUDY    78  67  69 SW15G21   29.76S
FREMONT        CLOUDY    76  65  69 W14G23    29.77R
MILLARD        PTSUNNY   82  67  61 W10G20    29.76S
OFFUTT AFB     MOSUNNY   84  63  49 W16G25    29.75R
PLATTSMOUTH    PTSUNNY   82  64  55 SW13      29.77S
WAHOO          MOCLDY    79  68  70 W14       29.77S
$$




USA.gov is the U.S. government's official web portal to all federal, state and local government web resources and services.